This is the latest recevied weather packets stored in our database for station/object N7NIP. If no packets are shown the sender has not sent any weather packets the latest 10 day(s).
| Time | Temp. | Humidity | Pressure | Rain* | Wind** | Luminosity | Snow |
|---|---|---|---|---|---|---|---|
| 1777363592 | 9.44° C | 80% | 1034.3 hPa | 0 mm | - | 0 W/m² | - |
| 1777363288 | 9.44° C | 80% | 1034.4 hPa | 0 mm | - | 0 W/m² | - |
| 1777362986 | 9.44° C | 79% | 1034.2 hPa | 0 mm | - | 0 W/m² | - |
| 1777362683 | 9.44° C | 77% | 1034.4 hPa | 0 mm | - | 0 W/m² | - |
| 1777362381 | 9.44° C | 78% | 1034.1 hPa | 0 mm | - | 0 W/m² | - |
| 1777362077 | 10° C | 78% | 1034.1 hPa | 0 mm | - | 0 W/m² | - |
| 1777361775 | 10° C | 77% | 1033.9 hPa | 0 mm | - | 0 W/m² | - |
| 1777361472 | 9.44° C | 78% | 1034.2 hPa | 0 mm | - | 0 W/m² | - |
| 1777361169 | 10° C | 79% | 1033.9 hPa | 0 mm | - | 0 W/m² | - |
| 1777360866 | 10° C | 76% | 1033.9 hPa | 0 mm | - | 0 W/m² | - |
| 1777360564 | 10° C | 74% | 1033.7 hPa | 0 mm | - | 0 W/m² | - |
| 1777360260 | 10° C | 74% | 1033.9 hPa | 0 mm | - | 0 W/m² | - |
| 1777359957 | 9.44° C | 75% | 1033.8 hPa | 0 mm | - | 0 W/m² | - |
| 1777359654 | 9.44° C | 78% | 1033.9 hPa | 0 mm | - | 0 W/m² | - |
| 1777359350 | 10° C | 76% | 1033.8 hPa | 0 mm | - | 0 W/m² | - |
| 1777359049 | 10° C | 77% | 1033.5 hPa | 0 mm | - | 0 W/m² | - |
| 1777358746 | 10° C | 77% | 1033.6 hPa | 0 mm | - | 0 W/m² | - |
| 1777358443 | 10° C | 77% | 1033.5 hPa | 0 mm | - | 0 W/m² | - |
| 1777358141 | 10° C | 75% | 1033.5 hPa | 0 mm | - | 0 W/m² | - |
| 1777357839 | 10° C | 79% | 1033.4 hPa | 0 mm | - | 0 W/m² | - |
| 1777357536 | 10° C | 76% | 1033.4 hPa | 0 mm | - | 0 W/m² | - |
| 1777357232 | 10° C | 76% | 1033.2 hPa | 0 mm | - | 0 W/m² | - |
| 1777356929 | 10.56° C | 77% | 1033.3 hPa | 0 mm | - | 0 W/m² | - |
| 1777356627 | 10.56° C | 75% | 1033.3 hPa | 0 mm | - | 0 W/m² | - |
| 1777356324 | 10.56° C | 76% | 1033.3 hPa | 0 mm | - | 0 W/m² | - |
* Rain latest hour (hover to see other rain measurements)
** Current wind speed in m/s (hover to see current wind gust speed)